SHU101 UNNT-UNKL

Flight info

Callsign SHU101
Flight time 1h 5m
Altitude 35000
Route OGATI A308 RISPA A366 KESED A309 ROTLI/K0778F270 A300 RANET
Aircraft CRJ9/M-SDFGIRWY/S

Departure

Time 2026-05-05 13:38
Airport Novosibirsk Tolmachevo Airport (UNNT)

Arrival

Time 2026-05-05 14:43
Airport Krasnoyarsk International Airport (UNKL)
Time Latitude Longitude Altitude Speed Heading
2026-05-05 13:13 55.01131 82.67021 373 ft 0 kts 351°
2026-05-05 13:32 55.01123 82.67023 373 ft 2 kts 352°
2026-05-05 13:32 55.01107 82.67026 373 ft 2 kts 356°
2026-05-05 13:32 55.01091 82.67024 373 ft 2 kts 21°
2026-05-05 13:32 55.01083 82.67008 373 ft 1 kts 79°
2026-05-05 13:33 55.01083 82.67007 373 ft 0 kts 81°
2026-05-05 13:34 55.01086 82.67040 373 ft 4 kts 81°
2026-05-05 13:35 55.01098 82.67165 373 ft 15 kts 82°
2026-05-05 13:35 55.01108 82.67349 373 ft 11 kts 88°
2026-05-05 13:35 55.01130 82.67464 373 ft 10 kts 37°
2026-05-05 13:35 55.01190 82.67532 373 ft 11 kts 31°
2026-05-05 13:36 55.01256 82.67601 373 ft 11 kts 31°
2026-05-05 13:36 55.01324 82.67672 373 ft 12 kts 30°
2026-05-05 13:36 55.01399 82.67747 372 ft 13 kts 30°
2026-05-05 13:36 55.01470 82.67756 371 ft 8 kts 303°
2026-05-05 13:37 55.01477 82.67664 371 ft 8 kts 265°
2026-05-05 13:37 55.01468 82.67559 371 ft 10 kts 260°
2026-05-05 13:37 55.01432 82.67138 374 ft 72 kts 261°
2026-05-05 13:37 55.01315 82.65841 373 ft 142 kts 261°
2026-05-05 13:38 55.01135 82.63838 517 ft 185 kts 261°
2026-05-05 13:38 55.00945 82.61589 1404 ft 184 kts 258°
2026-05-05 13:38 55.00248 82.59762 2518 ft 188 kts 225°
2026-05-05 13:38 54.98943 82.59011 3294 ft 216 kts 188°
2026-05-05 13:39 54.97460 82.59874 4079 ft 239 kts 150°
2026-05-05 13:39 54.96210 82.62184 4198 ft 294 kts 131°
2026-05-05 13:39 54.94883 82.65160 4173 ft 328 kts 131°
2026-05-05 13:39 54.93474 82.68408 4201 ft 328 kts 129°
2026-05-05 13:40 54.92191 82.71502 4469 ft 314 kts 129°
2026-05-05 13:40 54.90882 82.74739 4869 ft 341 kts 128°
2026-05-05 13:40 54.89488 82.78245 5266 ft 356 kts 124°
2026-05-05 13:40 54.88674 82.82110 5371 ft 331 kts 95°
2026-05-05 13:41 54.88868 82.85864 6076 ft 310 kts 79°
2026-05-05 13:41 54.89153 82.89648 6809 ft 322 kts 86°
2026-05-05 13:41 54.89144 82.93526 7559 ft 318 kts 93°
2026-05-05 13:41 54.89013 82.97419 7863 ft 329 kts 94°
2026-05-05 13:42 54.88896 83.01432 8193 ft 334 kts 92°
2026-05-05 13:42 54.88840 83.05532 8584 ft 337 kts 90°
2026-05-05 13:42 54.88814 83.09551 8900 ft 330 kts 90°
2026-05-05 13:42 54.88791 83.13544 9040 ft 331 kts 90°
2026-05-05 13:43 54.88748 83.17523 9179 ft 343 kts 91°
2026-05-05 13:43 54.88685 83.21731 9475 ft 349 kts 91°
2026-05-05 13:43 54.88629 83.25915 9922 ft 344 kts 91°
2026-05-05 13:43 54.88564 83.30080 10121 ft 354 kts 91°
2026-05-05 13:44 54.88504 83.34496 10414 ft 375 kts 91°
2026-05-05 13:44 54.88431 83.39116 10932 ft 389 kts 90°
2026-05-05 13:44 54.88358 83.43852 11643 ft 394 kts 90°
2026-05-05 13:44 54.88284 83.48610 12554 ft 396 kts 89°
2026-05-05 13:45 54.88211 83.53418 13226 ft 399 kts 89°
2026-05-05 13:45 54.88127 83.58261 13867 ft 403 kts 89°
2026-05-05 13:45 54.88046 83.63142 14463 ft 406 kts 89°
2026-05-05 13:45 54.87958 83.68061 15049 ft 409 kts 89°
2026-05-05 13:46 54.87871 83.73005 15631 ft 411 kts 90°
2026-05-05 13:46 54.87808 83.76293 15984 ft 413 kts 89°
2026-05-05 13:46 54.87683 83.82997 16709 ft 417 kts 89°
2026-05-05 13:46 54.87620 83.86336 17052 ft 419 kts 89°
2026-05-05 13:47 54.87517 83.91403 17573 ft 421 kts 89°
2026-05-05 13:47 54.87418 83.96489 18051 ft 423 kts 90°
2026-05-05 13:47 54.87311 84.01620 18475 ft 426 kts 89°
2026-05-05 13:47 54.87167 84.08528 18978 ft 429 kts 90°
2026-05-05 13:48 54.87093 84.11965 19235 ft 431 kts 90°
2026-05-05 13:48 54.86941 84.18944 19721 ft 434 kts 90°
2026-05-05 13:48 54.86863 84.22404 20002 ft 433 kts 90°
2026-05-05 13:48 54.86744 84.27642 20345 ft 436 kts 90°
2026-05-05 13:49 54.86622 84.32906 20696 ft 437 kts 90°
2026-05-05 13:49 54.86498 84.38196 21017 ft 440 kts 90°
2026-05-05 13:49 54.86370 84.43514 21329 ft 442 kts 91°
2026-05-05 13:49 54.86239 84.48856 21638 ft 444 kts 90°
2026-05-05 13:50 54.86106 84.54221 21944 ft 446 kts 91°
2026-05-05 13:50 54.85968 84.59618 22200 ft 449 kts 90°
2026-05-05 13:50 54.85834 84.65047 22496 ft 451 kts 90°
2026-05-05 13:50 54.85652 84.70496 22769 ft 453 kts 92°
2026-05-05 13:51 54.85359 84.75957 23041 ft 456 kts 94°
2026-05-05 13:51 54.85041 84.81357 23312 ft 457 kts 94°
2026-05-05 13:51 54.84719 84.86858 23444 ft 462 kts 94°
2026-05-05 13:51 54.84411 84.92447 23449 ft 469 kts 94°
2026-05-05 13:52 54.84115 84.98130 23455 ft 476 kts 94°
2026-05-05 13:52 54.83815 85.03883 23470 ft 482 kts 94°
2026-05-05 13:52 54.83503 85.09712 23484 ft 488 kts 94°
2026-05-05 13:52 54.83172 85.15597 23523 ft 493 kts 94°
2026-05-05 13:53 54.82838 85.21553 23540 ft 498 kts 93°
2026-05-05 13:53 54.82941 85.27515 23624 ft 493 kts 75°
2026-05-05 13:53 54.84090 85.33016 23806 ft 480 kts 55°
2026-05-05 13:53 54.86106 85.37451 23975 ft 464 kts 36°
2026-05-05 13:54 54.88552 85.41071 24146 ft 461 kts 33°
2026-05-05 13:54 54.90976 85.44719 24368 ft 462 kts 36°
2026-05-05 13:54 54.93273 85.48648 24597 ft 464 kts 39°
2026-05-05 13:54 54.95481 85.52750 24768 ft 464 kts 40°
2026-05-05 13:55 54.97682 85.56856 24957 ft 463 kts 40°
2026-05-05 13:55 54.99889 85.60949 25115 ft 463 kts 40°
2026-05-05 13:55 55.02090 85.65012 25376 ft 460 kts 38°
2026-05-05 13:55 55.04263 85.68958 25556 ft 459 kts 38°
2026-05-05 13:56 55.06494 85.73022 25734 ft 458 kts 38°
2026-05-05 13:56 55.08691 85.77034 25870 ft 458 kts 38°
2026-05-05 13:56 55.10888 85.81052 26014 ft 457 kts 38°
2026-05-05 13:56 55.12923 85.84773 26159 ft 457 kts 38°
2026-05-05 13:57 55.15081 85.88730 26308 ft 456 kts 38°
2026-05-05 13:57 55.17267 85.92750 26465 ft 456 kts 38°
2026-05-05 13:57 55.19448 85.96760 26619 ft 455 kts 38°
2026-05-05 13:57 55.21629 86.00780 26771 ft 455 kts 38°
2026-05-05 13:58 55.23814 86.04799 26918 ft 455 kts 38°
2026-05-05 13:58 55.25957 86.08892 27042 ft 460 kts 44°
2026-05-05 13:58 55.27744 86.13627 27132 ft 470 kts 52°
2026-05-05 13:58 55.29256 86.18717 27421 ft 472 kts 59°
2026-05-05 13:59 55.31732 86.29433 27656 ft 474 kts 62°
2026-05-05 13:59 55.32964 86.34808 27750 ft 474 kts 60°
2026-05-05 14:00 55.35552 86.45412 28017 ft 472 kts 59°
2026-05-05 14:00 55.36840 86.50714 28139 ft 471 kts 60°
2026-05-05 14:00 55.38124 86.56012 28240 ft 472 kts 60°
2026-05-05 14:00 55.39407 86.61314 28365 ft 471 kts 59°
2026-05-05 14:01 55.40690 86.66626 28489 ft 470 kts 60°
2026-05-05 14:01 55.41964 86.71923 28677 ft 469 kts 60°
2026-05-05 14:01 55.43233 86.77219 28788 ft 469 kts 60°
2026-05-05 14:01 55.44500 86.82510 28874 ft 470 kts 60°
2026-05-05 14:02 55.45764 86.87810 29013 ft 469 kts 60°
2026-05-05 14:02 55.47032 86.93113 29133 ft 468 kts 60°
2026-05-05 14:02 55.49531 87.03637 29309 ft 469 kts 60°
2026-05-05 14:03 55.52047 87.14281 29617 ft 467 kts 60°
2026-05-05 14:03 55.53282 87.19525 30043 ft 460 kts 60°
2026-05-05 14:03 55.54499 87.24698 30415 ft 453 kts 59°
2026-05-05 14:04 55.55700 87.29793 30770 ft 446 kts 59°
2026-05-05 14:04 55.56877 87.34821 31131 ft 439 kts 59°
2026-05-05 14:04 55.58030 87.39759 31497 ft 431 kts 58°
2026-05-05 14:04 55.59163 87.44621 31860 ft 424 kts 58°
2026-05-05 14:05 55.60274 87.49405 32180 ft 418 kts 58°
2026-05-05 14:05 55.61379 87.54139 32427 ft 414 kts 58°
2026-05-05 14:05 55.62460 87.58846 32684 ft 410 kts 58°
2026-05-05 14:05 55.63532 87.63496 32865 ft 408 kts 58°
2026-05-05 14:06 55.65676 87.72814 32973 ft 410 kts 58°
2026-05-05 14:06 55.67836 87.82235 33021 ft 415 kts 57°
2026-05-05 14:08 55.73800 88.08487 33019 ft 429 kts 58°
2026-05-05 14:09 55.78741 88.30450 33037 ft 440 kts 58°
2026-05-05 14:10 55.81486 88.42785 33038 ft 447 kts 58°
2026-05-05 14:10 55.85351 88.60277 33024 ft 453 kts 58°
2026-05-05 14:11 55.86890 88.67279 33025 ft 456 kts 58°
2026-05-05 14:11 55.90292 88.82859 33021 ft 460 kts 59°
2026-05-05 14:12 55.92564 88.93338 32788 ft 442 kts 59°
2026-05-05 14:12 55.93665 88.98412 32369 ft 435 kts 58°
2026-05-05 14:12 55.94383 89.01725 32103 ft 430 kts 58°
2026-05-05 14:13 55.95847 89.08440 31580 ft 441 kts 58°
2026-05-05 14:13 55.96965 89.13562 31224 ft 441 kts 58°
2026-05-05 14:13 55.98044 89.18621 30850 ft 432 kts 58°
2026-05-05 14:13 55.99090 89.23594 30474 ft 424 kts 57°
2026-05-05 14:14 55.99768 89.26850 30224 ft 419 kts 57°
2026-05-05 14:14 56.01115 89.33230 29678 ft 411 kts 57°
2026-05-05 14:14 56.02109 89.37979 29253 ft 405 kts 57°
2026-05-05 14:14 56.03105 89.42717 28838 ft 412 kts 58°
2026-05-05 14:15 56.04140 89.47553 28445 ft 421 kts 58°
2026-05-05 14:15 56.04856 89.50853 28243 ft 419 kts 58°
2026-05-05 14:15 56.05899 89.55688 27840 ft 415 kts 59°
2026-05-05 14:15 56.06895 89.60425 27450 ft 412 kts 60°
2026-05-05 14:16 56.07649 89.64044 27167 ft 410 kts 60°
2026-05-05 14:16 56.08229 89.66839 26933 ft 408 kts 60°
2026-05-05 14:16 56.09214 89.71591 26536 ft 406 kts 61°
2026-05-05 14:16 56.10189 89.76314 26156 ft 403 kts 61°
2026-05-05 14:17 56.11142 89.80950 25792 ft 401 kts 62°
2026-05-05 14:17 56.12103 89.85628 25419 ft 399 kts 62°
2026-05-05 14:17 56.13058 89.90288 25052 ft 397 kts 62°
2026-05-05 14:17 56.14006 89.94935 24699 ft 396 kts 63°
2026-05-05 14:18 56.14952 89.99565 24358 ft 394 kts 65°
2026-05-05 14:18 56.15894 90.04168 24010 ft 393 kts 66°
2026-05-05 14:18 56.16803 90.08727 23672 ft 391 kts 66°
2026-05-05 14:18 56.17727 90.13309 23270 ft 389 kts 66°
2026-05-05 14:19 56.18647 90.17868 22861 ft 388 kts 66°
2026-05-05 14:19 56.19565 90.22418 22452 ft 387 kts 67°
2026-05-05 14:19 56.20478 90.26949 22056 ft 386 kts 67°
2026-05-05 14:19 56.21387 90.31476 21662 ft 385 kts 67°
2026-05-05 14:20 56.22294 90.36001 21270 ft 384 kts 67°
2026-05-05 14:20 56.23186 90.40455 20896 ft 383 kts 67°
2026-05-05 14:20 56.24085 90.44958 20512 ft 382 kts 67°
2026-05-05 14:20 56.24981 90.49451 20147 ft 382 kts 68°
2026-05-05 14:21 56.25874 90.53944 19781 ft 381 kts 68°
2026-05-05 14:21 56.26765 90.58421 19424 ft 380 kts 68°
2026-05-05 14:21 56.27348 90.62617 19084 ft 381 kts 81°
2026-05-05 14:21 56.27572 90.67353 18734 ft 380 kts 87°
2026-05-05 14:22 56.27619 90.72105 18379 ft 379 kts 89°
2026-05-05 14:22 56.27535 90.76824 17964 ft 378 kts 100°
2026-05-05 14:22 56.26590 90.81147 17562 ft 369 kts 127°
2026-05-05 14:22 56.24814 90.84320 17186 ft 356 kts 147°
2026-05-05 14:23 56.23017 90.87319 16767 ft 355 kts 126°
2026-05-05 14:23 56.22096 90.91391 16371 ft 353 kts 98°
2026-05-05 14:23 56.22077 90.95753 16009 ft 347 kts 85°
2026-05-05 14:23 56.22281 91.00056 15642 ft 344 kts 82°
2026-05-05 14:24 56.22577 91.04294 15275 ft 340 kts 81°
2026-05-05 14:24 56.22897 91.08491 14901 ft 337 kts 81°
2026-05-05 14:24 56.23214 91.12651 14535 ft 335 kts 81°
2026-05-05 14:24 56.23495 91.16798 14167 ft 333 kts 82°
2026-05-05 14:25 56.23755 91.20921 13774 ft 332 kts 82°
2026-05-05 14:25 56.24015 91.25060 13234 ft 334 kts 83°
2026-05-05 14:25 56.24272 91.29215 12706 ft 335 kts 83°
2026-05-05 14:25 56.24529 91.33391 12199 ft 336 kts 84°
2026-05-05 14:26 56.24785 91.37566 11696 ft 336 kts 84°
2026-05-05 14:26 56.25039 91.41735 11191 ft 335 kts 85°
2026-05-05 14:26 56.25291 91.45871 10682 ft 328 kts 85°
2026-05-05 14:26 56.25534 91.49905 10181 ft 320 kts 85°
2026-05-05 14:27 56.25767 91.53835 9660 ft 312 kts 86°
2026-05-05 14:27 56.25993 91.57649 9286 ft 300 kts 86°
2026-05-05 14:27 56.26208 91.61289 9133 ft 286 kts 86°
2026-05-05 14:27 56.26405 91.64774 9062 ft 283 kts 86°
2026-05-05 14:28 56.26610 91.68304 9029 ft 288 kts 86°
2026-05-05 14:28 56.26827 91.71964 9013 ft 301 kts 86°
2026-05-05 14:28 56.27051 91.75647 9015 ft 290 kts 86°
2026-05-05 14:28 56.27254 91.79175 9003 ft 278 kts 86°
2026-05-05 14:29 56.27448 91.82582 9000 ft 269 kts 86°
2026-05-05 14:29 56.27641 91.85968 9023 ft 287 kts 86°
2026-05-05 14:29 56.27853 91.89792 9084 ft 321 kts 86°
2026-05-05 14:29 56.28070 91.93785 9090 ft 322 kts 86°
2026-05-05 14:30 56.28289 91.97759 9087 ft 313 kts 86°
2026-05-05 14:30 56.28507 92.01635 9065 ft 308 kts 86°
2026-05-05 14:30 56.28725 92.05491 9058 ft 314 kts 86°
2026-05-05 14:30 56.28944 92.09382 9053 ft 309 kts 86°
2026-05-05 14:31 56.29155 92.13179 9042 ft 302 kts 86°
2026-05-05 14:31 56.29361 92.16897 9042 ft 295 kts 86°
2026-05-05 14:31 56.29513 92.20653 9039 ft 306 kts 93°
2026-05-05 14:31 56.29357 92.24487 9048 ft 309 kts 99°
2026-05-05 14:32 56.29064 92.28334 9047 ft 307 kts 101°
2026-05-05 14:32 56.28762 92.32034 9014 ft 291 kts 100°
2026-05-05 14:32 56.28468 92.35664 8483 ft 295 kts 99°
2026-05-05 14:32 56.28210 92.39354 7963 ft 298 kts 98°
2026-05-05 14:33 56.27964 92.43072 7456 ft 300 kts 98°
2026-05-05 14:33 56.27723 92.46802 6960 ft 300 kts 98°
2026-05-05 14:33 56.27488 92.50478 6452 ft 291 kts 98°
2026-05-05 14:33 56.27256 92.54049 5914 ft 284 kts 98°
2026-05-05 14:34 56.27031 92.57542 5389 ft 278 kts 98°
2026-05-05 14:34 56.26809 92.60944 4967 ft 269 kts 99°
2026-05-05 14:34 56.26597 92.64241 4571 ft 261 kts 98°
2026-05-05 14:34 56.26390 92.67446 4158 ft 254 kts 103°
2026-05-05 14:35 56.25872 92.70419 3768 ft 246 kts 116°
2026-05-05 14:35 56.25183 92.73150 3395 ft 240 kts 120°
2026-05-05 14:35 56.24497 92.75744 3201 ft 213 kts 120°
2026-05-05 14:35 56.23906 92.78052 3098 ft 202 kts 119°
2026-05-05 14:36 56.23341 92.80287 3022 ft 187 kts 120°
2026-05-05 14:36 56.22805 92.82441 2992 ft 193 kts 122°
2026-05-05 14:36 56.21889 92.84067 2958 ft 185 kts 166°
2026-05-05 14:36 56.20697 92.84062 3074 ft 164 kts 195°
2026-05-05 14:37 56.19615 92.83510 3054 ft 160 kts 202°
2026-05-05 14:37 56.18589 92.82775 3042 ft 155 kts 206°
2026-05-05 14:37 56.17632 92.82005 3027 ft 146 kts 207°
2026-05-05 14:37 56.16739 92.81268 2993 ft 136 kts 208°
2026-05-05 14:38 56.15858 92.80530 2993 ft 149 kts 208°
2026-05-05 14:38 56.14847 92.79713 3042 ft 168 kts 207°
2026-05-05 14:38 56.13744 92.78843 3063 ft 169 kts 206°
2026-05-05 14:38 56.12681 92.78019 3042 ft 164 kts 206°
2026-05-05 14:39 56.11833 92.76763 3005 ft 158 kts 236°
2026-05-05 14:39 56.11544 92.74899 2982 ft 164 kts 272°
2026-05-05 14:39 56.11725 92.72780 3008 ft 178 kts 278°
2026-05-05 14:39 56.12127 92.70734 3005 ft 169 kts 289°
2026-05-05 14:40 56.12656 92.68922 3080 ft 160 kts 292°
2026-05-05 14:40 56.13133 92.67076 2904 ft 168 kts 288°
2026-05-05 14:40 56.13551 92.65191 2597 ft 161 kts 285°
2026-05-05 14:40 56.13958 92.63346 2382 ft 157 kts 284°
2026-05-05 14:41 56.14365 92.61504 2204 ft 161 kts 286°
2026-05-05 14:41 56.14807 92.59632 1970 ft 161 kts 288°
2026-05-05 14:41 56.15263 92.57854 1669 ft 159 kts 290°
2026-05-05 14:41 56.15668 92.56031 1568 ft 154 kts 288°
2026-05-05 14:42 56.16099 92.54312 1378 ft 150 kts 295°
2026-05-05 14:42 56.16503 92.52654 1085 ft 138 kts 291°
2026-05-05 14:42 56.16850 92.51184 935 ft 116 kts 294°
2026-05-05 14:42 56.17105 92.50122 933 ft 68 kts 293°
2026-05-05 14:43 56.17255 92.49468 934 ft 53 kts 292°
2026-05-05 14:43 56.17370 92.49006 933 ft 22 kts 296°
2026-05-05 14:43 56.17453 92.48753 936 ft 25 kts 317°
2026-05-05 14:43 56.17572 92.48600 934 ft 21 kts 325°
2026-05-05 14:44 56.17696 92.48440 936 ft 22 kts 324°
2026-05-05 14:44 56.17776 92.48256 935 ft 19 kts 290°
2026-05-05 14:44 56.17831 92.48041 934 ft 7 kts 330°
2026-05-05 14:44 56.17865 92.48045 935 ft 7 kts 17°
2026-05-05 14:45 56.17895 92.48065 934 ft 0 kts 22°
2026-05-05 14:45 56.17904 92.48072 934 ft 9 kts 22°
2026-05-05 14:46 56.17955 92.48074 937 ft 4 kts 305°
2026-05-05 14:46 56.17957 92.48064 935 ft 0 kts 284°